Погода в Юбилейном

Россия / Калужская область     54°46′02″N   36°17′01″E
темп.,
°C
ветер,
м/с
пор.,
м/с
влажн.,
%
обл.,
%
осадки,
мм/ч
давл.,
гПа
погр.,
м
7 августа, вс
вс700:00+19ю37774 0.0 1018107
03:00+18ю35785 0.0 101883
06:00+18ю36815 0.0 1018102
09:00+24ююз4662100 0.2 1018353
12:00+28ююз5643100 0.0 10171424
15:00+28юз4538100 0.0 10162585
18:00+24сз6763100 0.3 1017490
21:00+17с3796100 6.8 1019224
8 августа, пн
пн800:00+17ссв1197100 0.3 101934
03:00+17ссв229897 0.3 102088
06:00+16с239996 0.2 1020166
09:00+18ссв239579 0.6 1021279
12:00+21ссв227674 0.1 1021755
15:00+23с337197 0.5 1020765
18:00+21с458253 0.8 1020476
21:00+17с489793 7.0 1020273
9 августа, вт
вт900:00+16с2599100 3.3 1020142
03:00+15с2599100 3.3 1020190
06:00+16ссз3598100 0.0 1020192
09:00+17с4594100 0.0 1020374
12:00+18с4686100 0.1 1021573
15:00+20ссв457093 0.2 1021904
18:00+21ссв3565100 0.0 10201011
21:00+16ссв2280100 0.0 102130
10 августа, ср
ср1000:00+14ссв2284100 0.0 102133
03:00+14с2291100 0.0 102142
06:00+13с2493100 0.0 102192
09:00+18ссз337198 0.0 1021465
12:00+21ссз3354100 0.0 10211383
15:00+20ссз2560100 0.0 1020334
18:00+18с48659 0.1 1022676
21:00+13с23830 0.1 102337
11 августа, чт
чт1100:00+12с37900 0.0 1023114
03:00+10с36920 0.0 1024114
06:00+11с37920 0.0 1025145
09:00+17ссв35650 0.0 1025497
12:00+22ссв34470 0.0 10251581
15:00+23ссв33410 0.0 10241876
18:00+22с23510 0.0 1023564
21:00+16ссв11650 0.0 102411